Weather History for Drummond Island, MI

Change the Weather History Date:

Sunday, May 12, 2013

  Actual Average (KCIU) Record (KCIU)
Temperature  
Mean Temperature 34 °F -  
Max Temperature 36 °F 63 °F 80 °F (1992)
Min Temperature 31 °F 39 °F 20 °F (1984)
Degree Days  
Heating Degree Days 32    
Moisture  
Dew Point 31 °F    
Average Humidity 90    
Maximum Humidity 99    
Minimum Humidity 80    
Precipitation  
Precipitation 0.00 in - - ()
Sea Level Pressure  
Sea Level Pressure 29.77 in    
Wind  
Wind Speed 12 mph (WNW)    
Max Wind Speed 22 mph    
Max Gust Speed 34 mph    
Visibility 7 miles    
Events Rain , Snow    
Averages and records for this station are not official NWS values.
T = Trace of Precipitation, MM = Missing Value Source: NWS Daily Summary

Daily Weather History Graph

Daily Weather History Graph

Search for Another Location

Airport:

Trip Planner

Search our weather history database for the weather conditions in past years. The results will help you decide how hot, cold, wet, or windy it might be!

Date:

Astronomy

May. 12, 2013 Rise Set
Actual Time 6:06 AM EDT 8:57 PM EDT
Civil Twilight 5:31 AM EDT 9:32 PM EDT
Nautical Twilight 4:47 AM EDT 10:16 PM EDT
Astronomical Twilight 3:55 AM EDT 11:09 PM EDT
Moon 7:58 AM EDT (5/12) 11:25 PM EDT (5/12)
Length of Visible Light 16h 00m
Length of Day
14h 51m
Waxing Crescent, 6% of the Moon is Illuminated
May 12
Waxing Crescent
May 18
First Quarter
May 25
Full
May 31
Last Quarter
Jun 8
New

Hourly Weather History & Observations

Time (EDT) Temp. Windchill Dew Point Humidity Pressure Visibility Wind Dir Wind Speed Gust Speed Precip Events Conditions
12:15 AM 36.1 °F 29.9 °F 33.3 °F 89% 29.63 in 10.0 mi West 8.1 mph 20.7 mph N/A   Overcast
12:36 AM 35.8 °F 29.4 °F 33.1 °F 90% 29.63 in 10.0 mi West 8.1 mph 17.3 mph N/A   Overcast
12:55 AM 36.0 °F 29.6 °F 33.3 °F 90% 29.62 in 10.0 mi WSW 8.1 mph 16.1 mph N/A   Overcast
1:15 AM 36.0 °F 28.0 °F 33.4 °F 91% 29.61 in 10.0 mi West 11.5 mph 18.4 mph N/A   Overcast
1:36 AM 36.5 °F 29.2 °F 33.8 °F 90% 29.60 in 10.0 mi WSW 10.4 mph 23.0 mph N/A   Overcast
1:55 AM 36.9 °F 29.1 °F 33.8 °F 89% 29.59 in 10.0 mi WSW 11.5 mph 21.9 mph N/A   Overcast
2:16 AM 36.9 °F 29.6 °F 33.8 °F 89% 29.58 in 10.0 mi WSW 10.4 mph 21.9 mph N/A   Drizzle
2:35 AM 36.0 °F 28.0 °F 34.0 °F 93% 29.58 in 7.0 mi West 11.5 mph 20.7 mph N/A Rain Light Rain
2:56 AM 35.2 °F 26.6 °F 33.8 °F 94% 29.57 in 5.0 mi West 12.7 mph 20.7 mph N/A Rain Light Rain
3:16 AM 34.9 °F 26.6 °F 34.0 °F 97% 29.57 in 7.0 mi West 11.5 mph 20.7 mph N/A Rain Light Rain
3:35 AM 34.5 °F 25.3 °F 34.0 °F 98% 29.57 in 5.0 mi West 13.8 mph 23.0 mph N/A Snow Light Snow
3:56 AM 34.9 °F 27.1 °F 34.2 °F 97% 29.58 in 7.0 mi WNW 10.4 mph 21.9 mph N/A Rain Light Rain
4:16 AM 35.1 °F 26.9 °F 34.2 °F 97% 29.58 in 7.0 mi NW 11.5 mph 24.2 mph N/A Rain Light Rain
4:35 AM 34.7 °F 26.9 °F 33.8 °F 97% 29.59 in 7.0 mi NW 10.4 mph 24.2 mph N/A Rain Light Rain
4:56 AM 34.3 °F 24.6 °F 33.4 °F 97% 29.60 in 5.0 mi NW 15.0 mph 21.9 mph N/A Rain Light Rain
5:35 AM 33.1 °F 22.2 °F 32.5 °F 98% 29.63 in 1.8 mi NW 17.3 mph 26.5 mph N/A Snow Light Snow
5:56 AM 32.9 °F 23.7 °F 32.4 °F 98% 29.64 in 1.2 mi NNW 12.7 mph 19.6 mph N/A Snow Snow
6:15 AM 32.9 °F 25.9 °F 32.7 °F 99% 29.64 in 1.5 mi NW 8.1 mph 17.3 mph N/A Snow Light Snow
6:35 AM 33.3 °F 26.4 °F 32.7 °F 98% 29.65 in 10.0 mi NW 8.1 mph 18.4 mph N/A   Overcast
6:56 AM 33.3 °F 23.2 °F 32.2 °F 96% 29.66 in 7.0 mi NW 15.0 mph 25.3 mph N/A Snow Light Snow
7:15 AM 33.3 °F 23.2 °F 31.3 °F 92% 29.67 in 10.0 mi WNW 15.0 mph 23.0 mph N/A   Overcast
7:36 AM 33.4 °F 24.8 °F 30.6 °F 89% 29.68 in 10.0 mi WNW 11.5 mph 27.6 mph N/A   Overcast
7:56 AM 33.4 °F 22.3 °F 30.0 °F 87% 29.68 in 10.0 mi WNW 18.4 mph 29.9 mph N/A   Overcast
8:15 AM 33.6 °F 22.9 °F 29.5 °F 85% 29.68 in 10.0 mi WNW 17.3 mph 29.9 mph N/A   Overcast
8:36 AM 33.8 °F 23.2 °F 29.1 °F 83% 29.68 in 10.0 mi WNW 17.3 mph 32.2 mph N/A   Mostly Cloudy
8:56 AM 34.0 °F 22.7 °F 29.3 °F 83% 29.68 in 10.0 mi WNW 19.6 mph 33.4 mph N/A   Overcast
9:15 AM 34.7 °F 24.7 °F 29.3 °F 81% 29.69 in 10.0 mi WNW 16.1 mph 33.4 mph N/A   Overcast
9:36 AM 34.5 °F 23.8 °F 28.9 °F 80% 29.70 in 10.0 mi NW 18.4 mph 34.5 mph N/A   Overcast
9:55 AM 33.4 °F 22.0 °F 28.9 °F 84% 29.70 in 2.5 mi NW 19.6 mph 34.5 mph N/A Snow Light Snow
10:15 AM 32.2 °F 21.1 °F 29.7 °F 90% 29.71 in 0.8 mi WNW 17.3 mph 31.1 mph N/A Snow Light Snow
10:36 AM 32.0 °F 19.5 °F 29.5 °F 90% 29.71 in 0.8 mi WNW 21.9 mph 33.4 mph N/A Snow Light Snow
10:55 AM 32.0 °F 21.2 °F 29.3 °F 90% 29.71 in 1.2 mi WNW 16.1 mph 33.4 mph N/A Snow Light Snow
11:15 AM 32.0 °F 20.8 °F 29.3 °F 90% 29.71 in 0.8 mi WNW 17.3 mph 32.2 mph N/A Snow Light Snow
11:36 AM 32.0 °F 20.8 °F 30.7 °F 95% 29.72 in 0.2 mi WNW 17.3 mph 29.9 mph N/A Snow Snow
11:55 AM 31.1 °F 19.3 °F 30.2 °F 96% 29.74 in 0.2 mi NW 18.4 mph 29.9 mph N/A Snow Snow
12:16 PM 31.3 °F 20.7 °F 30.6 °F 97% 29.75 in 0.2 mi WNW 15.0 mph 28.8 mph N/A Snow Snow
12:36 PM 31.6 °F 22.6 °F 30.7 °F 96% 29.76 in 0.5 mi NW 11.5 mph 31.1 mph N/A Snow Snow
12:55 PM 31.8 °F 20.6 °F 30.4 °F 94% 29.77 in 0.5 mi NW 17.3 mph 29.9 mph N/A Snow Light Snow
1:16 PM 32.0 °F 22.5 °F 31.1 °F 96% 29.78 in 1.0 mi NW 12.7 mph 20.7 mph N/A Snow Light Snow
1:36 PM 32.0 °F 22.5 °F 30.2 °F 93% 29.79 in 0.8 mi NW 12.7 mph 27.6 mph N/A Snow Light Snow
2:16 PM 32.0 °F 21.6 °F 30.6 °F 94% 29.80 in 1.0 mi WNW 15.0 mph 26.5 mph N/A Snow Light Snow
2:35 PM 32.5 °F 22.7 °F 30.9 °F 94% 29.80 in 1.2 mi NW 13.8 mph 24.2 mph N/A Snow Light Snow
2:56 PM 32.9 °F 22.0 °F 30.6 °F 91% 29.81 in 1.2 mi NW 17.3 mph 33.4 mph N/A Snow Light Snow
3:15 PM 32.9 °F 21.6 °F 30.6 °F 91% 29.82 in 1.5 mi WNW 18.4 mph 28.8 mph N/A Snow Light Snow
3:35 PM 33.4 °F 22.7 °F 30.2 °F 88% 29.83 in 4.0 mi WNW 17.3 mph 26.5 mph N/A Snow Light Snow
3:56 PM 33.8 °F 23.5 °F 30.0 °F 86% 29.84 in 3.0 mi WNW 16.1 mph 29.9 mph N/A Snow Light Snow
4:15 PM 34.2 °F 23.6 °F 29.7 °F 84% 29.84 in 10.0 mi NW 17.3 mph 32.2 mph N/A   Overcast
4:35 PM 34.3 °F 23.2 °F 29.8 °F 84% 29.85 in 10.0 mi WNW 19.6 mph 29.9 mph N/A   Overcast
4:56 PM 34.3 °F 25.0 °F 30.2 °F 85% 29.86 in 10.0 mi WNW 13.8 mph 27.6 mph N/A   Overcast
5:15 PM 34.3 °F 25.5 °F 30.9 °F 87% 29.87 in 10.0 mi WNW 12.7 mph 28.8 mph N/A   Overcast
5:35 PM 34.5 °F 26.2 °F 31.1 °F 87% 29.88 in 5.0 mi NW 11.5 mph 28.8 mph N/A Snow Light Snow
5:56 PM 34.9 °F 27.1 °F 30.6 °F 84% 29.89 in 7.0 mi NW 10.4 mph 32.2 mph N/A   Overcast
6:15 PM 34.7 °F 25.1 °F 30.0 °F 83% 29.90 in 10.0 mi NW 15.0 mph 26.5 mph N/A   Overcast
6:36 PM 34.0 °F 25.0 °F 31.1 °F 89% 29.92 in 10.0 mi NW 12.7 mph 33.4 mph N/A   Overcast
6:56 PM 34.0 °F 25.5 °F 30.9 °F 89% 29.92 in 10.0 mi WNW 11.5 mph 29.9 mph N/A   Overcast
7:15 PM 34.0 °F 24.6 °F 30.9 °F 89% 29.93 in 10.0 mi NW 13.8 mph 24.2 mph N/A   Overcast
7:36 PM 34.0 °F 25.0 °F 30.0 °F 85% 29.93 in 10.0 mi NW 12.7 mph 23.0 mph N/A   Overcast
7:55 PM 34.2 °F 28.2 °F 29.3 °F 82% 29.94 in 10.0 mi NW 6.9 mph 21.9 mph N/A   Overcast
8:15 PM 34.5 °F 26.2 °F 29.8 °F 83% 29.95 in 10.0 mi NW 11.5 mph 25.3 mph N/A   Overcast
8:36 PM 34.3 °F 26.5 °F 31.1 °F 88% 29.95 in 10.0 mi NW 10.4 mph 17.3 mph N/A Snow Light Snow
8:55 PM 34.0 °F 27.2 °F 30.9 °F 89% 29.95 in 10.0 mi WNW 8.1 mph - N/A Snow Light Snow
9:15 PM 34.0 °F 25.5 °F 30.7 °F 88% 29.96 in 10.0 mi WNW 11.5 mph 23.0 mph N/A   Overcast
9:36 PM 34.0 °F 28.0 °F 30.7 °F 88% 29.96 in 10.0 mi WNW 6.9 mph - N/A Snow Light Snow
9:55 PM 33.8 °F 27.7 °F 30.7 °F 89% 29.97 in 7.0 mi WNW 6.9 mph 17.3 mph N/A Snow Light Snow
10:16 PM 34.0 °F 26.6 °F 30.9 °F 89% 29.97 in 10.0 mi WNW 9.2 mph - N/A   Overcast
10:36 PM 34.0 °F 26.6 °F 30.7 °F 88% 29.98 in 10.0 mi WNW 9.2 mph - N/A   Overcast
10:55 PM 33.8 °F 27.7 °F 30.2 °F 87% 29.98 in 10.0 mi West 6.9 mph 17.3 mph N/A   Overcast
11:16 PM 34.0 °F 28.8 °F 30.0 °F 85% 29.98 in 10.0 mi West 5.8 mph 17.3 mph N/A   Overcast
11:36 PM 34.2 °F 27.5 °F 30.2 °F 85% 29.97 in 10.0 mi WNW 8.1 mph - N/A   Overcast
11:55 PM 34.2 °F 26.8 °F 30.0 °F 85% 29.97 in 10.0 mi WNW 9.2 mph 16.1 mph N/A   Mostly Cloudy